Location: Chanonat
(45.6931°N, 3.0936°E)
Time: 00:47:47
(UTC+00:00)

Daily predictions for brighter satellites

Satellite Brightness Start Highest point End
(mag) Time Altitude Azimuth Time Altitude Azimuth Time Altitude Azimuth
Cosmos 1867 3.5 00:05:01 55° SSW 00:06:18 87° SE 00:11:49 10° NE
Cosmos 1461 2.8 00:02:30 10° NW 00:06:31 76° W 00:06:31 76° W
Cosmos 2221 Rocket 3.4 00:06:47 75° SW 00:07:05 81° W 00:11:31 10° N
Cosmos 1674 Rocket 3.5 00:06:55 68° ESE 00:07:08 69° E 00:11:26 10° NNE
Cosmos 2298 Rocket 4.3 00:07:41 47° SE 00:08:33 52° ESE 00:13:42 10° NNE
Cosmos 1674 2.9 00:10:51 62° NW 00:10:51 62° NW 00:14:17 10° N
USA 306 3.9 00:11:52 33° E 00:11:52 33° E 00:14:39 10° ENE
Cosmos 1238 Rocket 3.5 00:10:11 10° N 00:12:06 37° NNW 00:12:06 37° NNW
USA 307 4.0 00:15:20 31° E 00:15:20 31° E 00:18:04 10° ENE
ATLAS CENTAUR R/B 2.7 00:10:22 10° NW 00:13:59 31° W 00:13:59 31° W
SL-16 R/B 4.2 00:16:08 13° ESE 00:17:54 15° E 00:21:04 10° ENE
Cosmos 2322 Rocket 4.5 00:17:24 10° W 00:21:10 18° NW 00:24:56 10° N
Cosmos 1980 4.0 00:20:38 44° SSE 00:21:51 52° ESE 00:27:19 10° NE
Cosmos 2333 Rocket 3.3 00:19:42 23° WSW 00:22:36 38° NW 00:27:54 10° NNE
Cosmos 1378 Rocket 3.4 00:22:19 74° SSW 00:22:42 85° W 00:27:10 10° N
ATLAS 5 CENTAUR R/B 2.9 00:10:33 10° NW 00:23:09 83° SW 00:24:40 45° SSE
Cosmos 2322 4.3 00:20:47 32° WSW 00:23:11 50° WNW 00:28:46 10° NNE
Cosmos 468 4.4 00:18:02 10° NNW 00:23:17 84° WSW 00:24:27 55° SSE
CZ-4C R/B 3.0 00:16:20 10° NW 00:23:39 70° WSW 00:27:53 32° SSE
USA 215 4.1 00:21:04 10° NE 00:27:20 50° NNW 00:33:35 10° W
NOSS 0 Rocket 3.9 00:29:22 46° S 00:31:22 78° ESE 00:37:38 10° NNE
PSLV R/B 4.2 00:30:03 10° N 00:34:14 45° WNW 00:35:00 41° W
USA 32 4.2 00:35:15 45° SSE 00:36:44 66° E 00:41:57 10° N
Meteor 2-10 Rocket 4.1 00:33:11 10° N 00:38:48 58° ENE 00:41:17 31° SE
Cosmos 1975 Rocket 4.1 00:39:39 32° ESE 00:40:40 37° E 00:44:47 10° NNE
Cosmos 2151 Rocket 4.3 00:36:41 10° NNW 00:40:45 37° W 00:40:53 37° W
Cosmos 1745 Rocket 4.0 00:36:23 10° NNW 00:42:33 66° W 00:44:35 43° SSW
ADEOS Rocket 4.0 00:42:18 25° WSW 00:43:20 27° W 00:48:17 10° NW
Cosmos 839 Rocket 4.2 00:37:35 10° NW 00:44:00 87° WSW 00:49:12 21° SSE
USA 308 2.8 00:44:46 65° SE 00:44:46 65° SE 00:48:50 10° ENE
Okean 2 Rocket 4.2 00:41:02 10° NNW 00:45:00 31° W 00:45:13 30° W
Cosmos 2219 Rocket 3.4 00:42:56 20° WSW 00:45:55 33° NW 00:50:58 10° NNE
Cosmos 1025 Rocket 4.1 00:47:03 30° ESE 00:48:08 35° E 00:52:04 10° NNE
Meteor 2-12 Rocket 4.3 00:44:06 10° N 00:50:11 80° W 00:52:26 41° S
GP-B 3.0 00:52:43 10° N 00:57:11 82° E 00:58:07 55° S
Meteor 2-5 Rocket 4.3 00:55:38 30° SSE 00:58:10 50° E 01:03:37 10° NNE
Lacrosse 5 2.7 00:58:31 34° SE 00:59:13 35° SE 01:03:51 10° ENE
CZ-2D R/B 3.0 00:55:07 10° NNE 01:00:12 41° E 01:02:28 28° SSE
Cosmos 1300 2.6 00:57:36 10° NNW 01:01:23 70° W 01:01:27 69° WSW
SL-14 R/B 3.6 01:02:27 47° W 01:02:41 48° WNW 01:06:27 10° N
USA 267 3.7 01:02:14 35° SW 01:03:07 36° SW 01:09:04 10° WNW
Cosmos 371 Rocket 3.7 01:06:03 39° WSW 01:07:29 54° WNW 01:12:16 10° NNE
Cosmos 2150 Rocket 4.4 01:06:08 37° WSW 01:07:53 54° WNW 01:12:57 10° NNE
USA 305 2.9 01:07:08 50° WSW 01:08:08 76° NNW 01:12:20 10° NE
USA 229 DEB 4.1 01:03:44 10° NW 01:10:56 55° WSW 01:15:06 28° S
USA 229 4.1 01:03:50 10° NW 01:11:02 55° WSW 01:15:14 27° S
Cosmos 2237 Rocket 2.3 01:11:28 37° SW 01:13:44 69° WNW 01:19:27 10° NNE
COSMOS 2428 4.1 01:12:17 17° W 01:15:41 29° NW 01:20:38 10° N
Cosmos 405 Rocket 4.4 01:18:03 20° W 01:18:30 20° WNW 01:21:21 10° NNW
Cosmos 304 Rocket 3.9 01:17:17 43° SW 01:18:46 67° WNW 01:23:35 10° NNE
Cosmos 1437 Rocket 4.3 01:16:44 10° NW 01:19:16 22° W 01:19:16 22° W
SL-16 R/B 2.9 01:14:42 15° SSE 01:19:52 65° ENE 01:26:03 10° N
Lacrosse 5 rocket 2.4 01:21:54 28° SE 01:22:06 28° SE 01:25:34 10° ENE
Cosmos 1125 Rocket 4.3 01:20:00 28° WSW 01:22:07 40° WNW 01:27:01 10° N
Okean 1 Rocket 4.3 01:19:58 10° NNW 01:23:42 27° W 01:24:05 26° W
SME Rocket 3.1 01:24:34 47° SSW 01:25:34 65° WSW 01:30:30 10° NNW
Cosmos 1953 3.8 01:23:20 10° NW 01:26:26 22° W 01:26:26 22° W
Cosmos 2074 Rocket 4.3 01:22:45 10° N 01:29:03 68° E 01:33:59 17° SSE
Resurs 1-4 Rocket 2.1 01:24:12 10° NNE 01:29:29 76° ESE 01:31:56 33° S
Cosmos 2297 4.2 01:27:48 10° NNW 01:33:32 61° ENE 01:39:12 10° SE
Cosmos 1943 Rocket 2.3 01:27:52 10° NNW 01:33:36 76° ENE 01:39:15 10° SSE
MOZ.5/SAFIR/RUBIN 5/SL-8 4.3 01:33:59 36° SW 01:35:05 43° W 01:39:37 10° NNW
Cosmos 2315 Rocket 4.5 01:35:34 29° SW 01:38:35 49° WNW 01:44:46 10° N
Cosmos 2184 Rocket 4.0 01:37:39 10° N 01:43:58 84° E 01:48:45 18° S
Cosmos 2278 Rocket 3.2 01:39:47 10° NW 01:44:25 26° WSW 01:45:23 25° WSW
ADEOS II 2.5 01:40:13 10° NNE 01:45:24 56° E 01:48:40 22° S
IDEFIX/ARIANE 42P 3.3 01:41:10 10° NNE 01:46:17 48° E 01:49:52 19° SSE
USA 306 3.7 01:47:33 19° W 01:50:16 45° NNW 01:54:19 10° NE
Cosmos 2084 Rocket 3.3 01:49:15 38° WSW 01:50:32 66° NW 01:54:19 10° NE
Thor Agena Rocket 4.4 01:48:39 10° N 01:53:31 38° WNW 01:56:09 23° WSW
USA 307 3.6 01:51:04 20° W 01:53:44 48° NNW 01:57:49 10° NE
ERBS 3.5 01:54:54 23° WNW 01:56:06 32° NNW 01:58:55 10° NE
NPP 3.6 01:52:05 10° NNE 01:57:29 77° WNW 02:00:36 26° SSW
Cosmos 2369 Rocket 3.1 01:53:21 10° NNW 01:58:47 49° ENE 02:04:11 10° SE
SL-16 R/B 2.2 01:58:00 27° SSW 02:01:13 83° WNW 02:06:56 10° NNE
Cosmos 1455 Rocket 4.1 01:58:09 10° NNW 02:02:03 30° W 02:03:15 26° WSW
CZ-4 R/B 4.1 01:57:53 10° N 02:02:26 53° WNW 02:04:41 27° SW
Cosmos 614 Rocket 4.1 01:57:21 10° NNW 02:02:34 79° ENE 02:07:47 10° SSE
Cosmos 2228 4.0 01:58:30 10° N 02:02:44 46° ENE 02:06:54 10° SSE
EO 1 Del DPAF 3.4 02:00:04 10° NNE 02:03:33 58° ESE 02:05:17 26° S
Cosmos 2251 Rocket 4.3 01:59:22 10° NNW 02:04:31 52° ENE 02:09:40 10° SE
Meteor 1-28 Rocket 3.1 02:03:36 21° SSE 02:06:00 86° E 02:09:45 10° NNW
COSMOS 2455 3.1 02:04:48 22° SSW 02:08:43 65° ESE 02:14:41 10° NE
Cosmos 1536 Rocket 3.5 02:08:02 25° S 02:10:35 87° W 02:15:00 10° N
Iridium 82 4.4 02:09:13 28° S 02:11:01 90° S 02:14:34 10° N
CZ-4C R/B 4.4 02:06:46 10° WNW 02:11:29 17° WSW 02:12:59 17° WSW
Nadezhda 1 Rocket 4.0 02:15:05 18° SSW 02:20:00 82° W 02:26:21 10° N
Meteor 1-24 Rocket 4.3 02:17:04 21° SW 02:20:19 42° WNW 02:25:29 10° N
UNK 4.1 02:19:09 22° SSW 02:21:41 43° W 02:26:06 10° NNW
MSX 4.0 02:17:37 10° NNE 02:23:25 77° ESE 02:28:25 14° S
USA 308 4.2 02:20:38 10° W 02:24:31 36° NNW 02:28:25 10° NE
MOS 1 Rocket 3.5 02:23:22 22° SSW 02:25:46 43° W 02:29:54 10° NNW
Cosmos 1455 2.9 02:22:30 10° NNW 02:25:54 34° W 02:27:23 24° SW
Cosmos 1271 Rocket 2.7 02:26:01 10° NNW 02:29:47 62° W 02:32:44 16° S
Cosmos 1606 Rocket 3.9 02:29:32 10° N 02:33:58 66° E 02:38:18 10° SSE
ALOS 4.2 02:33:37 10° NE 02:37:33 27° E 02:41:29 10° SSE
CZ-2C R/B 4.2 02:35:17 10° NE 02:39:44 29° E 02:44:04 10° SSE
CZ-2D R/B 3.3 02:35:27 10° N 02:40:04 30° WNW 02:43:47 14° WSW
Lacrosse 5 2.4 02:37:42 13° WSW 02:42:04 54° NNW 02:47:04 10° NE
Helios 1B rocket 3.3 02:40:35 10° NNE 02:44:30 46° E 02:48:24 10° S
Cosmos 2341 Rocket 4.1 02:40:21 10° N 02:46:47 87° E 02:53:11 10° S
Cosmos 2154 Rocket 4.5 02:44:07 10° NNW 02:50:05 44° W 02:56:00 10° SSW
BREEZE-M DEB (TANK) 3.3 02:47:13 15° SW 02:50:49 40° SSE 02:53:12 10° E
Meteor 2-1 Rocket 4.3 02:45:31 10° NNW 02:51:20 88° W 02:56:58 10° S
Cosmos 407 Rocket 3.8 02:47:10 10° NNW 02:52:32 75° ENE 02:57:47 10° SSE
SL-8 Rocket 4.2 02:47:10 10° N 02:53:32 82° E 02:59:51 10° S
Cosmos 1943 3.4 02:50:42 11° SSW 02:56:13 75° ESE 03:01:55 10° NNE
Cosmos 1328 3.8 02:52:19 10° S 02:56:16 86° E 03:00:16 10° N
Helios 1A 3.9 02:53:26 14° SSW 02:56:28 30° W 03:00:13 10° NW
Cosmos 2237 Rocket 4.4 02:55:39 10° WNW 02:58:55 15° NW 03:02:12 10° N
Genesis I 3.7 02:55:52 10° NNW 02:59:57 66° NE 03:03:54 10° SE
Lacrosse 5 rocket 2.0 02:57:25 11° WSW 03:00:58 46° NNW 03:04:58 10° NE
Cosmos 1140 Rocket 3.5 02:58:11 10° NNW 03:03:29 85° WSW 03:08:43 10° SSE
SL-16 R/B 3.7 02:59:47 12° SW 03:03:56 23° W 03:08:45 10° NW
Lacrosse 4 Rocket 3.8 03:05:31 10° SSE 03:08:36 19° ESE 03:11:38 10° ENE
Resurs 1-4 Rocket 3.9 03:05:19 10° NNW 03:08:41 18° WNW 03:12:03 10° W
SeaSat 1 4.1 03:05:18 10° NE 03:09:35 29° ESE 03:13:50 10° SSE
Cosmos 1892 Rocket 3.6 03:05:35 10° S 03:10:01 87° W 03:14:33 10° N
Cosmos 1726 Rocket 3.6 03:09:09 10° NNW 03:13:32 61° W 03:17:50 10° S
Cosmos 1943 Rocket 3.7 03:13:05 10° WNW 03:16:39 17° W 03:20:11 10° SW
FENGYUN 3A 3.9 03:12:13 10° NNE 03:17:38 77° ESE 03:23:01 10° S
Cosmos 2263 4.3 03:12:16 10° NNW 03:17:50 59° WSW 03:23:25 10° S
NOSS 3-3 (A) 3.9 03:13:39 10° SW 03:19:18 83° NW 03:25:52 10° NE
NOSS 3-3 (C) 3.9 03:13:45 10° SW 03:19:24 83° NW 03:25:57 10° NE
ADEOS II 3.6 03:20:40 10° NNW 03:24:41 23° WNW 03:28:40 10° WSW
Cosmos 1825 3.7 03:21:27 10° SSE 03:24:52 36° E 03:28:18 10° NNE
IDEFIX/ARIANE 42P 3.9 03:21:16 10° N 03:25:34 26° WNW 03:29:52 10° WSW
SL-24 DEB 4.3 03:21:39 10° S 03:26:21 64° W 03:31:03 10° N
ARIANE 5 R/B 2.9 03:22:50 10° NNE 03:27:53 64° ESE 03:32:51 10° S
Cosmos 1624 Rocket 4.2 03:23:18 10° SSW 03:28:37 79° ESE 03:33:56 10° NNE
CBERS-1 4.3 03:25:46 10° N 03:30:45 54° WNW 03:35:43 10° SSW
